Showing default

YUNHAI 1, 41857

Orbit data source: Space-Track

YUNHAI 1, 41857 is a payload satellite owned by SAST (CN) in SSO that was launched on Fri, 11 Nov 2016 UTC via a CHANG ZHENG 2D launch vehicle from the Jiuquan Satellite Launch Center, China (JSC). Payload-class satellites include a variety of spacecraft equipped with specific instruments for various scientific and technological missions. These include communications satellites like Starlink; space stations such as the ISS; scientific satellites like the Hubble; Earth observation satellites from companies like Planet Labs, Umbra, and HawkEye 360; GPS; miniature CubeSats for education and research; and military/defense satellites.

Loading next visibility...
Identifier
41857, 2016-068A
Orbit
SSO
Country
Flag of CNCN / PRC
Related business
Manufacturer
SAST
Mission
Operational Defense Weather
Bus & Motor
YUNHAI-1, Unknown motor
Mass
~800 kg wet, ~800 kg dry
Launch date (UTC)
2016-11-11 (10 years ago)
Launch vehicle
CHANG ZHENG 2D
Launch site
Jiuquan Satellite Launch Center, China (JSC)
Object type
Payload
Rocket body
Debris
Shape & HBR
Box + 2 Pan, 2.0 m
Radar Cross Section
5.141 m², Large (>1 m²)

Expand to show TLE details & history
Last TLE update: 1 day ago

TLE from 1 day ago
0 YUNHAI 1
1 41857U 16068A   26172.49691751  .00000590  00000-0  23422-3 0  9996
2 41857  98.5846 183.4647 0005850  46.3194 313.8474 14.32426766502441
Epoch: 2026-06-21T11:55Z
TLE epoch observation values (Epoch: 2026-06-21T11:55:33.672Z)
Latitude
-0.00002°
Longitude
94.87806°
Altitude
783.664 km
Speed
7.464 km/s
True Right ascension
12h 13m 51s
True Declination
0° 00' 00"
Sunlit
Object was in daylight at epoch
Visualization orbit readout
Latitude
Unknown
Longitude
Unknown
Altitude
Unknown
Speed
Unknown
Apparent Right ascension
Unknown
Apparent Declination
Unknown
Sunlit
N/A
Visualization observer readout
Local Sidereal Time
00:49:55
Azimuth
Unknown
Elevation
Unknown
Doppler factor
Unknown
Orbital elements
Apogee altitude
784.955 km
Perigee altitude
776.579 km
Semi-major axis
7,158.904 km
Eccentricity
0.00059
Inclination
98.5846°
RAAN
183.4647°
Arg. of periapsis
46.3194°
True anomaly
313.79903°
Mean anomaly
313.8474°
Eccentric anomaly
313.82322°
Mean motion
3.58322 °/min
Orbital period
100.47 mins
BSTAR
0.00023422
Loading maneuver chart data...
Computing Atmospheric mass density...
Loading historical data...
Loading historical data...
Loading historical data...
Loading historical data...
Loading historical data...
Loading historical data...
Loading historical data...

Documentation

Showing up to 5 results
|